EHI
0 0 0 0 0 0 0 0 0 0 0 0 0 0 0 0 0 0 0 0 0 1 2 1 0 0 0 0 0 0 0 0 0 0 1 0 1 2 2 1 0 0 0
0 0 0 0 0 0 0 0 0 0 0 0 0 0 0 0 0 0 0 0 0 0 1 0 0 0 0 0 0 0 0 0 0 0 1 0 0 1 2 1 0 0 0
0 0 0 0 0 0 0 0 0 0 0 0 0 0 0 0 0 0 0 0 0 0 0 0 0 0 0 1 1 0 0 0 0 0 0 0 0 0 1 1 0 0 0
0 0 0 0 0 0 0 0 0 0 0 0 0 0 0 0 0 0 0 0 0 0 0 0 0 0 1 2 2 1 0 0 0 0 0 0 0 0 0 0 0 0 0
0 0 0 0 0 0 0 0 0 0 0 0 0 0 0 0 0 0 0 0 0 0 0 0 0 0 1 2 2 1 0 0 0 0 0 0 0 0 0 1 1 0 0
0 0 0 0 0 0 0 0 0 0 0 0 0 0 0 0 0 0 0 0 0 0 0 0 0 0 0 1 1 1 0 0 0 0 0 0 1 0 0 1 2 1 1
0 0 0 0 0 0 0 0 0 0 0 0 0 0 0 0 0 0 0 0 0 0 0 0 0 0 0 0 0 1 1 0 0 0 0 0 0 0 0 1 2 2 2
0 0 0 0 0 0 0 0 0 0 0 0 0 0 0 0 0 0 0 0 0 0 0 0 0 0 0 0 0 0 0 0 0 0 0 0 0 0 0 0 1 1 1
0 0 0 0 0 0 0 0 0 0 0 0 0 0 0 0 0 0 0 0 0 0 0 0 0 0 0 0 0 0 0 0 0 0 0 0 0 0 0 0 0 0 0
0 0 0 0 0 0 0 0 0 0 0 0 0 0 0 0 0 0 0 0 0 0 0 0 0 0 0 0 0 0 0 0 0 0 0 0 0 0 0 0 0 0 0
0 0 0 0 0 0 0 0 0 0 0 0 0 0 0 0 0 0 0 0 0 0 0 0 0 0 0 0 0 0 0 0 0 0 0 0 0 0 0 0 0 0 0
0 0 0 0 0 0 0 0 0 0 0 0 0 0 0 0 0 0 0 0 0 0 0 0 0 0 0 0 0 0 0 0 0 0 0 0 0 0 0 0 0 0 0
0 0 0 0 0 0 0 0 0 0 0 0 0 0 0 0 0 0 0 0 0 0 0 0 0 0 0 0 0 0 0 0 0 0 0 0 0 0 0 0 0 0 0
0 0 0 0 0 0 0 0 0 0 0 0 0 0 0 0 0 0 0 0 0 0 0 0 0 0 0 0 0 0 0 0 0 0 0 0 0 0 0 0 0 0 0
0 0 0 0 0 0 0 0 0 0 0 0 0 0 0 0 0 0 0 0 0 0 0 0 0 0 0 0 0 0 0 0 0 0 0 0 0 0 0 0 0 0 0
0 0 0 0 1 1 2 1 0 0 0 0 0 0 0 0 0 0 0 0 0 0 0 0 0 0 0 0 0 0 0 0 0 0 0 0 0 0 0 0 0 0 0
0 0 0 0 1 2 3 2 1 0 0 0 0 0 0 0 0 0 0 0 0 0 0 0 0 0 0 0 0 0 0 0 0 0 0 0 0 0 0 0 0 0 0
1 1 1 0 1 1 2 2 1 0 0 0 0 0 0 0 0 0 0 0 0 0 0 0 0 0 0 0 0 0 0 0 0 0 0 0 0 0 0 0 0 0 0
3 2 2 1 1 1 1 1 0 0 0 0 0 0 0 0 0 0 0 0 0 0 0 0 0 0 0 0 0 0 0 0 0 0 0 0 0 0 0 0 0 0 0
4 4 3 3 2 1 0 0 0 0 0 0 0 0 0 0 0 0 0 0 0 0 0 0 0 0 0 0 0 0 0 0 0 0 0 0 0 0 0 0 0 0 0
5 4 4 3 2 1 0 0 0 0 0 0 0 0 0 0 0 0 0 0 0 0 0 0 0 0 0 0 0 0 0 0 0 0 0 0 0 0 0 0 0 0 0
4 4 3 3 2 1 0 0 0 0 0 0 0 0 0 0 0 0 0 0 0 0 0 0 0 0 0 0 0 0 0 0 0 0 0 0 0 0 0 0 0 0 0
4 4 4 4 3 1 0 0 0 0 0 0 0 0 0 0 0 0 0 0 0 0 0 0 0 0 0 0 0 0 0 0 0 0 0 0 0 0 0 0 0 0 0
3 4 5 6 5 3 1 0 0 0 0 0 0 0 0 0 0 0 0 0 0 0 0 0 0 0 0 0 0 0 0 0 0 0 0 0 0 0 0 0 0 0 0
2 4 6 6 6 3 1 0 0 0 0 0 0 0 0 0 0 0 0 0 0 0 0 0 0 0 0 0 0 0 0 0 0 0 0 0 0 0 0 0 0 0 0
3 4 6 6 6 4 2 1 0 0 0 0 0 0 0 0 0 0 0 0 0 0 0 0 0 0 0 0 0 0 0 0 0 0 0 0 0 0 0 0 0 0 0
Wind_Speed
2 1 1 1 1 1 1 2 2 3 4 4 5 5 5 5 6 5 4 10 11 11 11 11 10 10 10 10 10 10 10 10 9 9 9 9 9 9 9 8 9 9 9
2 2 2 1 2 2 2 2 3 3 3 4 5 5 4 4 4 5 4 6 9 11 11 11 10 10 10 10 10 10 10 10 10 9 9 9 9 9 9 9 9 9 10
2 2 2 2 2 2 3 3 4 3 3 3 4 4 4 4 4 4 4 3 4 8 11 11 11 10 10 10 10 10 10 9 9 9 9 9 9 9 9 10 10 10 11
3 3 2 2 2 3 3 2 3 3 3 3 3 3 3 2 3 2 3 3 3 4 7 10 11 10 10 10 10 10 9 9 9 9 10 10 10 11 11 10 11 11 11
2 3 2 1 3 2 2 3 3 3 2 2 2 2 2 2 2 3 4 4 4 4 4 7 9 10 10 10 10 10 10 9 9 9 10 10 11 11 11 11 11 11 11
2 3 2 2 3 3 2 3 3 2 2 2 2 2 2 2 2 3 3 3 3 4 4 4 4 6 9 10 10 10 9 9 10 10 10 10 10 10 11 11 11 11 11
2 3 2 2 3 2 2 2 2 2 1 1 2 2 2 2 2 2 2 2 3 3 3 4 3 3 4 8 10 10 10 10 10 10 10 10 10 11 11 11 11 11 11
2 2 2 2 2 2 2 2 2 1 0 1 1 1 1 2 3 3 2 2 3 3 3 4 4 4 4 3 6 10 10 10 10 10 10 10 10 10 11 11 11 11 11
1 1 2 2 3 2 1 1 1 1 1 1 1 1 2 1 1 2 3 3 3 3 3 3 4 5 5 4 4 7 10 10 10 10 10 10 10 10 10 10 11 11 11
2 1 2 2 2 2 2 2 2 1 1 0 0 0 1 3 2 0 1 1 2 3 3 3 4 4 5 4 5 8 9 9 9 9 9 9 10 10 10 10 10 10 10
2 1 1 2 2 2 2 1 1 1 1 1 1 0 1 0 1 2 1 0 1 1 2 2 3 3 4 4 4 7 9 9 9 9 9 9 9 10 10 10 10 10 10
1 2 1 2 2 2 2 2 1 1 0 0 0 1 1 1 1 1 2 2 1 1 2 2 2 2 3 4 5 8 9 8 9 9 9 9 9 10 10 10 10 10 10
1 2 2 2 2 2 2 2 2 2 1 0 0 0 0 0 0 1 2 1 1 0 1 1 1 2 3 3 3 7 7 8 8 8 8 8 9 9 9 10 10 10 10
2 2 2 2 2 1 2 2 1 1 1 1 1 1 1 1 1 2 2 2 1 0 1 1 1 2 3 3 4 4 4 7 7 7 8 8 8 9 9 9 9 9 10
2 2 2 3 2 2 2 2 1 1 1 1 1 1 1 1 2 1 1 2 2 1 0 0 1 1 2 3 4 3 4 7 7 7 7 7 7 8 8 8 9 9 9
3 3 3 2 2 2 3 2 2 1 2 1 1 2 1 1 1 2 1 1 1 2 1 1 1 2 2 3 5 3 5 8 7 7 6 6 7 7 7 7 8 8 8
3 3 3 3 3 3 3 3 2 2 2 2 2 2 1 2 2 1 1 1 2 2 2 1 1 2 2 3 2 2 3 3 3 6 6 6 6 6 6 6 7 7 8
3 3 3 3 3 3 3 3 2 2 2 2 2 3 2 2 2 1 1 1 1 2 3 2 1 1 2 2 2 1 2 3 3 6 7 6 6 5 6 6 6 6 7
3 3 3 3 3 3 3 3 2 2 2 2 2 2 2 2 2 1 2 1 1 2 3 3 2 1 1 1 1 1 2 1 3 6 6 5 5 5 5 4 4 5 5
3 3 3 3 3 2 3 3 2 3 3 2 2 2 2 2 2 2 2 1 2 3 3 3 2 1 1 1 2 1 1 0 1 2 2 4 5 5 4 4 3 3 4
2 3 3 3 2 2 2 2 2 3 3 3 2 2 3 4 5 3 3 2 2 2 2 2 2 2 1 1 1 1 1 0 0 1 1 1 2 2 2 3 2 2 2
2 3 3 3 3 3 3 3 1 2 3 3 2 2 3 4 6 7 7 7 5 3 2 2 2 2 1 1 1 1 1 1 1 1 1 0 2 2 2 2 3 3 2
2 3 2 3 3 3 4 3 2 2 1 2 2 2 2 4 4 3 5 5 5 5 4 3 3 2 2 1 1 1 1 1 1 1 2 1 0 1 1 3 5 5 3
3 2 2 3 3 3 4 3 3 2 1 1 2 2 3 3 3 4 3 4 3 2 2 2 2 2 2 2 2 2 2 2 1 1 2 0 1 1 0 1 4 5 4
2 3 3 3 4 3 4 3 3 1 2 1 2 2 2 2 3 4 4 4 3 1 3 5 4 4 4 4 3 2 2 2 0 1 1 1 1 1 1 1 2 4 3
2 2 2 3 3 3 4 4 3 2 2 1 2 2 2 3 3 4 3 3 3 2 2 3 3 3 2 3 3 2 2 1 1 1 1 1 0 0 1 1 1 1 2
Wind_Direction
124 118 124 112 121 117 98 68 71 58 50 49 59 67 69 79 88 85 72 71 67 68 72 72 68 66 64 66 67 65 63 60 61 64 62 60 58 55 55 53 51 53 52
129 118 105 104 94 85 78 80 80 73 59 54 56 56 53 64 86 100 97 76 71 71 70 69 70 69 68 66 67 67 65 62 61 62 62 62 60 58 54 53 53 53 54
112 107 104 110 107 98 82 72 72 73 80 69 64 62 54 50 63 85 107 108 86 74 72 71 70 68 67 65 65 65 64 64 63 62 59 61 60 58 56 57 59 56 54
78 78 67 85 84 86 86 82 78 70 67 61 51 52 55 49 56 63 83 95 102 94 78 77 72 67 64 64 64 63 62 63 63 63 61 63 60 61 61 59 60 58 56
88 86 69 69 83 86 87 89 76 77 79 80 76 61 49 49 45 54 71 77 87 103 103 87 77 70 64 62 62 62 62 61 64 65 67 64 62 60 62 60 61 59 56
94 92 86 70 73 74 74 88 93 80 78 82 79 72 51 54 54 45 56 69 79 90 98 102 93 72 65 59 58 60 61 61 62 62 66 64 63 62 63 62 61 59 56
86 97 96 81 73 82 99 109 104 97 77 89 83 59 37 47 74 62 45 53 64 73 90 93 94 90 72 59 53 58 59 62 63 60 65 66 66 64 62 62 62 59 58
114 120 118 109 101 91 86 95 101 105 134 143 124 105 50 15 27 55 53 54 55 52 63 75 82 80 81 73 57 59 58 59 61 59 61 66 66 63 62 63 62 60 60
98 103 122 126 138 133 130 149 155 146 188 244 127 130 136 149 28 10 45 56 51 44 49 53 70 73 79 73 64 56 60 58 59 58 58 63 66 67 66 64 62 60 59
110 90 123 141 140 133 142 200 166 163 151 231 300 245 134 139 142 85 2 43 62 58 53 56 62 69 80 81 71 69 67 60 58 57 57 60 63 66 66 63 62 61 59
141 153 164 146 140 139 153 164 120 157 172 175 176 162 70 119 155 151 174 286 39 52 73 76 74 73 77 81 82 77 74 68 62 58 58 58 60 63 65 62 60 61 58
155 173 154 137 149 156 161 158 155 153 184 64 81 117 137 144 193 141 158 164 125 68 77 78 86 95 91 79 81 81 79 76 70 63 60 57 58 58 61 59 57 57 54
166 187 164 158 154 160 162 155 158 159 168 129 68 51 99 236 173 116 125 145 129 148 80 65 93 107 107 103 95 91 84 83 77 71 66 61 59 58 58 57 56 55 53
173 175 168 160 148 147 139 130 133 160 159 155 150 104 68 30 61 96 126 132 130 88 76 89 63 86 99 106 115 108 95 94 87 81 78 71 64 60 57 56 55 55 54
168 162 164 155 152 145 135 138 136 129 98 90 90 85 72 47 57 76 104 135 144 138 90 102 76 83 103 109 121 113 108 99 96 90 84 78 71 68 62 59 58 55 53
165 160 155 151 153 156 149 136 119 114 113 105 93 84 68 58 63 65 66 45 97 130 125 148 146 137 108 111 119 113 115 111 104 100 92 86 81 76 72 68 64 61 56
166 173 166 156 158 159 141 134 146 156 149 146 131 113 95 84 86 84 74 53 59 99 116 108 98 106 94 102 115 127 141 128 118 115 108 100 92 84 81 75 69 63 57
179 177 155 150 160 150 143 146 152 137 131 132 131 130 131 108 98 87 94 88 89 105 123 125 111 97 106 128 143 149 140 138 142 136 130 122 114 104 94 83 74 66 59
181 172 156 159 147 137 141 141 147 141 129 118 116 129 127 118 127 118 109 97 104 106 113 129 130 104 94 101 98 98 113 119 141 144 144 144 137 128 117 101 87 75 63
177 168 148 138 137 146 145 145 145 140 127 113 89 89 86 88 104 125 121 112 111 108 114 123 127 121 106 103 95 84 68 84 111 131 141 150 152 150 140 122 104 88 70
142 127 130 130 119 108 99 111 136 142 128 120 111 107 100 95 84 83 90 88 102 115 123 125 127 108 104 107 154 170 130 166 64 95 106 159 146 144 150 145 136 118 91
143 128 130 125 117 108 102 99 84 123 132 141 154 149 133 116 99 90 89 84 88 108 122 117 114 133 161 168 171 138 125 97 317 332 91 251 133 144 164 165 164 158 153
128 125 128 130 129 126 114 107 94 97 112 141 149 140 125 124 125 117 101 91 76 73 92 126 128 159 165 191 153 124 135 137 177 220 88 321 91 147 191 170 168 172 176
145 151 149 148 137 129 117 106 101 118 119 128 133 133 126 126 125 125 129 114 93 75 98 112 133 156 147 157 156 158 172 147 109 73 96 139 290 255 232 149 173 175 185
150 160 156 152 142 138 133 128 122 139 135 124 103 99 122 128 120 125 129 130 128 122 92 93 99 103 103 103 104 86 69 91 84 295 61 127 268 287 252 177 192 190 193
159 156 159 157 148 147 151 150 151 151 150 143 117 96 94 111 116 127 144 146 151 167 134 104 78 76 86 96 85 106 126 119 133 249 285 129 242 59 317 265 196 197 222